FW4287 Weather Reports


time (UTC)temp
C
wind
direction
speed
KPH
gust
KPH
rain 1hr
cm
rain 24hr
cm
rain mn
cm
humidity
%
barometer
mb
20260503203145 26 32 12.9 27.4 0.00 0.00 0.00 30 1013.9
20260503201530 26 31 11.3 27.4 0.00 0.00 0.00 31 1013.9
20260503200034 25 36 9.7 22.5 0.00 0.00 0.00 31 1014.1
20260503194530 25 27 12.9 32.2 0.00 0.00 0.00 32 1014.3
20260503193031 25 41 8.0 17.7 0.00 0.00 0.00 32 1014.4
20260503191530 25 24 12.9 29.0 0.00 0.00 0.00 34 1014.5
20260503184529 24 325 6.4 14.5 0.00 0.00 0.00 41 1014.7
20260503183029 24 343 4.8 17.7 0.00 0.00 0.00 41 1014.8
20260503181607 23 323 6.4 19.3 0.00 0.00 0.00 42 1014.9
20260503180144 23 315 8.0 14.5 0.00 0.00 0.00 45 1015.0
20260503174531 22 289 8.0 12.9 0.00 0.00 0.00 47 1015.1
20260503173031 22 296 6.4 9.7 0.00 0.00 0.00 47 1015.3
20260503171530 21 292 8.0 11.3 0.00 0.00 0.00 48 1015.3
20260503120105 7 135 0.0 0.0 0.00 0.00 0.00 88 1015.4
20260503110146 8 157 0.0 3.2 0.00 0.00 0.00 85 1015.6
20260503081529 10 180 0.0 1.6 0.00 0.00 0.00 87 1015.5
20260503071530 11 164 0.0 3.2 0.00 0.00 0.00 85 1015.5
20260503054532 12 168 0.0 4.8 0.00 0.00 0.00 79 1015.5
20260503053030 13 200 0.0 3.2 0.00 0.00 0.00 78 1015.4
20260503051530 13 178 0.0 3.2 0.00 0.00 0.00 74 1015.4
20260503050033 15 154 0.0 4.8 0.00 0.00 0.00 72 1015.4
20260503041530 15 135 0.0 3.2 0.00 0.00 0.00 73 1015.0
20260503040038 15 135 0.0 0.0 0.00 0.00 0.00 70 1014.8
20260503034531 16 135 0.0 0.0 0.00 0.00 0.00 68 1014.6
20260503033030 17 135 0.0 4.8 0.00 0.00 0.00 66 1014.4
20260503031530 18 155 0.0 4.8 0.00 0.00 0.00 65 1014.0
20260503030031 18 157 0.0 4.8 0.00 0.00 0.00 64 1013.7
20260503024528 18 129 0.0 3.2 0.00 0.00 0.00 64 1013.5
20260503020030 22 158 0.0 3.2 0.00 0.00 0.00 55 1013.3
20260503014529 23 271 0.0 4.8 0.00 0.00 0.00 46 1013.2
20260503013030 24 3 0.0 4.8 0.00 0.00 0.00 38 1013.2
20260503011608 24 20 3.2 9.7 0.00 0.00 0.00 37 1013.2
20260503010031 24 54 4.8 11.3 0.00 0.00 0.00 38 1013.2
20260503004529 24 33 4.8 12.9 0.00 0.00 0.00 37 1013.2
20260503003030 25 37 3.2 11.3 0.00 0.00 0.00 37 1013.2
20260503001531 25 30 6.4 16.1 0.00 0.00 0.00 36 1013.2
20260503000033 25 50 8.0 17.7 0.00 0.00 0.00 37 1013.3
20260502234532 25 30 6.4 11.3 0.00 0.00 0.00 37 1013.5
20260502233033 25 48 3.2 9.7 0.00 0.00 0.00 37 1013.6
20260502230034 24 66 8.0 16.1 0.00 0.00 0.00 38 1014.0
20260502224531 24 43 9.7 17.7 0.00 0.00 0.00 39 1014.2
20260502223031 24 32 9.7 27.4 0.00 0.00 0.00 39 1014.4
20260502221551 24 343 9.7 20.9 0.00 0.00 0.00 40 1014.5
20260502213032 22 334 6.4 16.1 0.00 0.00 0.00 50 1015.0
20260502211645 22 306 6.4 16.1 0.00 0.00 0.00 52 1015.1